Wind_Speed
17 17 17 17 17 17 18 18 18 18 17 17 17 17 17 17 17 17 16 16 16 16 15 14 15 15 14 12 10 11 12 13 14 10 9 13 20 25 24 22 22 22 24 27 30 30 29 27 25 23 21 19 16 15 15 14 12 11 9 8 10 8 7 6 5 5 3 2 7 9 8 11 12 14 15 13 12 11 10 8 9 10 8 10 12 17 23 27
17 17 17 18 18 18 18 18 18 18 18 18 17 18 18 18 18 17 17 16 17 17 16 15 15 15 15 13 11 11 11 13 13 8 8 14 21 27 26 26 25 22 23 25 28 29 28 26 26 24 22 20 17 17 17 16 15 13 9 9 11 10 8 5 5 6 4 3 9 9 6 8 11 13 15 14 13 12 12 10 12 12 10 14 16 20 25 27
17 18 18 18 18 18 19 19 19 19 19 18 18 18 18 19 19 19 18 17 17 17 17 17 16 16 16 15 13 12 12 12 11 8 11 15 19 25 26 27 26 21 19 21 24 26 26 24 25 26 24 21 19 19 18 17 16 13 11 11 12 10 7 5 5 6 5 5 8 7 6 9 13 15 14 13 11 11 12 9 6 8 12 16 18 23 26 26
17 17 17 18 18 18 18 19 19 19 19 19 19 19 19 19 19 19 19 18 17 17 18 17 16 16 16 15 14 13 12 11 10 10 12 13 16 21 25 26 24 19 18 20 23 25 25 25 26 26 25 22 21 20 19 18 15 14 13 12 13 10 9 8 6 5 6 3 6 7 7 12 15 15 13 12 11 9 8 6 1 1 8 14 16 23 27 25
16 17 17 17 17 18 18 19 19 19 19 19 19 19 19 19 19 19 19 19 18 18 18 18 17 16 16 16 15 14 12 10 9 9 10 10 14 18 21 24 22 19 19 21 25 27 29 29 29 28 26 23 23 22 19 17 15 14 13 14 14 12 11 10 7 4 4 2 6 8 8 13 16 13 12 12 7 2 3 3 1 4 2 7 12 20 25 25
16 16 17 17 17 18 18 19 19 20 20 20 20 20 20 19 19 19 20 20 19 19 19 19 18 17 17 16 15 15 12 8 7 7 6 7 12 15 18 22 22 21 22 23 26 30 32 32 32 32 29 25 24 21 17 16 16 15 15 16 14 12 12 13 8 2 2 2 5 7 9 14 15 11 11 11 3 2 5 3 1 3 3 3 9 17 22 23
16 16 17 17 17 18 18 18 19 19 20 20 20 20 20 19 19 19 20 20 19 19 19 19 19 18 17 17 16 15 12 10 12 11 8 7 11 15 17 21 24 24 24 25 27 31 33 34 35 32 30 28 25 21 17 17 17 15 15 16 14 14 15 14 8 2 3 3 4 8 10 11 11 10 10 11 6 7 10 6 3 2 2 4 9 15 19 19
16 16 16 16 17 17 17 17 17 18 19 19 20 20 20 20 19 19 19 19 19 20 20 20 20 19 18 18 17 15 12 13 14 12 10 10 12 14 17 21 24 25 24 23 25 28 32 35 35 32 32 29 26 22 18 19 19 17 16 16 14 14 14 11 7 5 8 7 5 10 10 6 6 9 12 12 11 13 14 12 9 6 5 6 9 13 18 19
18 17 16 16 16 16 16 16 16 16 17 18 19 19 20 20 19 19 18 18 19 19 20 21 20 20 19 18 18 15 14 15 13 11 10 11 13 14 16 19 22 23 23 22 22 25 31 34 34 33 32 28 26 24 20 22 21 16 14 15 14 13 11 8 7 8 10 11 11 11 9 7 6 9 15 16 15 17 17 15 12 9 8 7 10 13 18 20
19 18 17 16 16 16 16 16 15 16 16 17 18 19 19 19 19 19 18 18 18 18 19 21 21 21 20 19 18 15 15 15 13 12 12 12 14 15 16 19 21 21 21 22 22 24 28 30 29 30 29 27 27 25 23 24 20 14 14 15 15 14 11 10 10 11 12 16 16 14 12 10 11 12 17 19 18 19 19 18 15 12 9 8 10 14 17 19
20 19 18 17 16 17 17 16 16 16 16 17 18 19 19 19 19 19 18 18 18 17 18 20 21 21 20 20 18 15 16 17 13 13 15 14 15 16 16 18 20 20 20 21 22 21 22 24 26 28 29 28 28 27 27 25 19 16 17 17 18 15 14 13 13 14 14 18 20 17 16 15 16 17 18 19 19 20 21 20 17 15 12 9 11 14 17 20
19 19 19 18 18 18 19 18 18 18 17 18 19 20 20 20 19 19 19 18 18 18 18 19 21 21 22 20 16 15 16 16 16 16 17 16 16 17 17 17 19 19 20 19 18 18 18 22 27 30 30 29 29 27 26 26 22 19 19 20 20 18 18 17 16 16 17 21 21 18 19 19 20 19 17 18 19 19 20 20 19 17 14 12 12 15 18 21
20 20 20 20 20 20 21 21 20 20 19 18 19 20 21 21 21 20 20 19 19 19 18 18 19 20 23 18 10 14 16 16 18 18 18 17 16 18 18 18 19 19 19 18 15 14 16 22 28 31 30 27 29 27 24 27 26 21 20 22 21 20 22 20 17 17 18 22 22 21 22 22 22 19 17 19 19 19 20 21 21 19 16 15 14 16 19 22
21 21 21 22 22 22 22 23 21 20 20 19 19 21 21 21 22 22 20 20 20 20 18 18 18 19 23 17 10 15 16 15 16 16 18 18 16 17 18 18 20 22 22 20 16 14 14 21 27 31 31 28 29 27 22 25 27 22 18 21 23 23 22 21 17 18 17 21 23 23 26 25 21 19 20 21 19 18 19 21 22 20 18 17 15 17 19 22
22 23 23 23 24 24 24 24 22 20 20 19 20 22 22 22 23 23 21 21 21 21 20 19 18 19 21 17 15 19 18 17 16 18 21 20 19 19 17 17 20 24 25 23 21 18 15 20 29 33 33 31 28 28 24 22 25 23 18 20 23 24 23 21 18 19 19 20 24 26 28 26 22 21 22 22 21 18 18 20 22 21 19 18 16 17 19 20
23 23 24 25 25 25 25 25 24 22 21 20 21 23 23 23 24 24 22 22 21 21 21 19 17 18 19 17 16 18 21 22 22 23 24 22 21 20 17 18 21 25 27 26 25 23 19 21 29 32 33 32 28 29 28 24 25 25 22 22 22 22 25 22 19 20 19 20 25 30 28 25 22 23 23 23 22 20 19 20 22 22 20 19 17 16 19 20
23 24 25 26 27 27 26 26 25 24 23 22 22 24 24 23 24 24 22 22 21 20 19 17 17 17 15 16 15 16 21 26 28 28 27 25 24 22 21 21 23 26 27 27 27 27 25 25 29 32 33 33 31 28 27 28 31 29 26 26 24 22 23 23 20 19 18 22 28 32 31 26 22 23 25 25 24 22 21 21 23 23 21 20 17 16 19 21
24 25 26 26 28 28 27 27 27 25 25 23 23 24 24 24 24 23 21 19 19 18 17 14 15 13 7 9 12 16 22 26 30 31 29 28 27 26 24 22 23 28 29 29 31 32 31 29 31 34 35 36 36 35 34 35 37 33 28 27 27 25 24 24 22 17 17 22 29 33 33 28 23 23 25 25 23 22 22 22 24 25 24 22 19 17 19 20
24 25 26 26 27 28 28 27 27 27 25 24 24 25 24 23 23 20 17 18 17 15 13 13 14 11 6 8 12 19 24 26 29 31 30 29 29 29 25 23 25 30 32 32 34 36 35 34 34 38 43 46 46 45 44 39 33 32 30 28 28 28 28 27 24 17 15 21 29 34 35 30 26 25 25 25 23 21 22 23 25 26 26 26 23 19 18 18
26 26 26 26 26 27 27 26 26 27 25 24 24 24 24 22 20 15 11 17 16 12 12 14 14 11 10 15 18 23 25 26 28 30 31 31 32 31 28 27 27 30 33 34 36 38 38 38 42 47 51 52 50 45 42 37 30 26 24 27 29 30 31 29 25 18 15 22 30 34 35 32 29 28 27 27 26 24 26 28 29 28 28 29 26 22 18 16
27 27 27 26 26 27 27 25 25 25 24 23 24 24 25 24 22 19 14 15 15 11 12 14 14 14 10 14 19 24 26 26 26 27 30 32 34 35 33 32 31 33 35 33 33 35 37 42 48 50 51 49 46 43 39 36 33 27 20 22 27 31 33 31 27 21 16 21 28 32 35 34 31 31 29 29 30 29 29 29 29 28 29 30 29 24 18 15
27 27 27 26 26 26 26 25 23 23 23 22 23 23 24 24 23 24 22 18 15 10 12 14 13 15 13 10 13 19 25 27 25 25 29 32 36 38 37 35 35 35 34 32 32 34 38 46 50 47 47 45 43 42 39 36 35 33 26 23 26 32 33 31 30 25 18 19 24 28 34 34 34 34 33 33 35 33 29 27 26 27 29 31 30 26 21 18
27 27 27 25 25 25 25 24 22 22 22 21 21 21 21 22 22 22 23 21 17 9 10 13 12 14 15 14 13 10 16 25 28 27 28 33 38 38 38 38 37 35 34 36 38 39 41 47 49 45 44 45 43 41 39 37 35 36 34 29 31 33 30 31 32 28 23 22 21 23 28 31 34 37 38 37 37 35 32 28 25 25 27 26 26 27 24 22
27 26 26 25 24 24 24 23 21 21 21 21 21 20 21 22 21 21 21 21 17 9 11 14 11 12 14 17 18 13 9 16 25 28 27 32 37 38 39 39 37 37 38 38 38 41 44 44 42 44 45 43 43 43 39 37 36 37 38 37 37 35 33 34 33 27 26 25 22 18 20 27 34 39 40 40 39 37 35 32 28 28 29 26 26 28 26 24
28 27 26 26 24 24 24 23 21 20 19 19 19 20 21 21 21 20 20 21 16 8 10 14 11 10 11 15 19 16 9 7 16 26 28 30 35 38 39 38 38 40 39 38 37 39 44 39 30 35 46 45 42 43 42 39 37 38 41 43 42 37 35 36 32 24 22 23 23 18 13 17 27 37 42 42 42 41 38 36 33 30 32 33 32 31 28 25
28 27 26 26 25 23 23 23 22 21 19 17 17 18 20 20 20 19 19 18 13 7 8 12 12 11 12 14 17 16 6 3 9 20 26 29 33 36 37 39 39 40 39 37 36 38 43 41 26 20 33 44 43 41 44 41 36 39 47 47 43 39 36 35 31 22 17 20 24 20 12 13 21 31 40 44 44 44 42 40 38 33 34 36 35 33 29 26
29 27 26 26 25 24 23 23 23 22 21 18 16 16 17 18 18 17 16 11 8 8 9 12 15 16 14 15 16 15 8 1 7 15 23 29 35 36 38 41 39 38 38 35 36 40 41 42 37 21 19 34 44 45 45 42 39 45 50 47 42 39 37 36 31 22 19 24 26 23 17 15 20 26 33 43 48 47 46 44 41 38 37 37 34 32 30 27
28 27 26 25 25 23 23 24 24 24 23 21 18 16 16 16 15 14 9 3 5 10 12 13 16 19 14 11 12 9 8 8 4 12 19 27 35 35 38 41 39 36 37 37 40 43 40 41 45 35 24 29 40 47 46 42 42 47 44 40 42 40 37 38 32 26 25 25 26 31 25 13 17 25 28 40 50 50 50 48 44 42 39 38 36 34 31 29
28 27 26 24 23 22 23 25 25 25 23 22 20 17 15 13 12 11 4 2 6 10 14 16 16 18 14 8 8 5 6 9 9 8 9 20 29 32 35 37 36 32 34 40 41 40 40 40 41 40 37 34 31 36 44 43 43 42 33 30 37 38 38 38 31 29 27 20 25 38 32 13 13 25 28 39 52 54 53 50 45 42 39 38 38 36 33 32
28 27 26 24 22 22 22 23 24 23 22 21 19 17 15 11 10 7 2 3 9 12 15 17 16 19 19 14 9 8 9 9 11 13 9 14 21 29 33 31 31 30 30 37 40 39 37 32 31 38 42 39 30 26 35 41 41 38 29 22 25 30 36 35 30 29 22 15 26 41 37 19 12 23 29 35 45 51 51 51 48 44 41 40 40 38 36 34
28 27 26 25 23 22 22 22 21 20 20 19 17 16 12 9 8 4 3 6 11 15 17 18 19 22 23 21 13 8 9 10 12 12 8 6 11 22 28 22 23 29 30 32 36 40 38 28 25 31 35 36 35 30 29 33 37 37 30 24 20 19 25 27 25 24 14 9 25 40 40 27 18 26 34 30 33 41 48 50 47 46 43 40 39 40 38 35
29 27 27 25 24 23 23 22 21 19 19 17 15 13 9 6 5 3 5 10 9 13 20 22 24 25 21 19 16 13 10 11 12 9 8 10 6 3 6 6 10 18 28 32 31 34 39 38 31 25 24 28 34 36 32 29 34 38 33 29 21 11 11 14 12 12 9 9 24 37 34 27 28 37 41 34 29 33 42 47 45 43 41 38 37 38 39 37
29 28 27 26 26 24 23 23 21 18 18 17 15 11 5 3 2 2 9 11 8 13 21 23 23 22 18 15 18 18 12 12 13 5 8 13 11 10 8 4 12 9 16 26 28 28 31 35 38 33 27 26 32 38 37 32 34 39 38 34 24 9 4 8 6 4 5 8 24 36 29 22 28 38 42 40 35 30 31 37 43 41 36 33 32 33 37 38
29 28 27 27 26 24 22 23 22 20 18 16 14 9 4 1 0 5 9 10 11 15 20 21 20 18 16 15 18 19 14 12 13 6 6 14 11 9 11 3 9 5 7 14 19 24 25 25 36 43 38 32 34 37 38 36 35 38 41 39 33 24 15 8 4 3 3 5 19 32 21 11 19 31 38 39 36 32 28 29 39 46 42 36 32 33 35 38
29 28 27 27 24 21 21 21 22 21 19 15 12 8 6 3 3 6 9 11 14 18 18 19 18 17 17 16 16 16 16 15 15 12 11 14 14 12 15 13 7 4 3 4 7 14 23 29 35 39 40 38 35 35 36 36 34 35 40 40 40 41 31 13 4 7 7 5 14 25 17 9 16 25 32 34 32 33 32 28 33 45 50 47 44 43 42 39
28 28 26 25 22 20 20 19 18 20 17 13 10 8 6 4 3 6 10 12 14 18 17 16 16 16 18 17 15 15 18 17 17 16 13 12 11 10 13 16 13 10 12 13 9 5 9 26 32 28 34 42 40 36 37 38 35 33 39 44 45 45 37 20 10 12 11 7 14 24 20 15 17 19 24 30 32 31 32 31 29 33 45 52 51 49 47 42
27 28 26 24 22 21 20 17 15 16 13 9 8 7 5 3 3 7 12 13 13 14 14 13 14 15 16 16 16 17 20 18 17 18 14 10 8 9 11 12 12 9 17 21 9 5 15 20 29 27 29 38 40 37 35 38 39 34 37 46 43 35 35 29 13 7 9 6 10 20 20 18 19 17 20 27 31 32 32 32 30 27 35 45 47 46 46 44
27 27 25 23 23 22 20 17 14 14 11 7 4 4 4 3 5 9 11 12 11 12 11 10 10 11 13 14 14 16 20 20 20 20 16 9 6 8 13 13 13 10 11 16 11 8 18 18 23 31 29 31 36 38 35 35 39 37 36 39 36 28 28 31 19 7 7 4 4 10 15 20 25 23 22 25 30 34 34 33 32 29 30 34 38 39 40 41
26 25 23 22 22 21 19 16 14 12 9 5 2 2 2 2 5 8 8 8 10 11 10 8 8 9 10 12 13 16 18 19 21 20 14 9 8 10 14 16 14 13 12 14 16 14 12 9 13 26 30 29 33 39 40 37 37 40 38 32 34 35 31 31 25 13 7 4 4 5 6 18 31 30 26 27 29 33 35 35 35 33 31 30 31 32 33 37
26 26 22 21 21 20 17 14 11 9 8 7 3 2 1 1 3 5 5 6 8 10 9 7 7 9 11 12 13 15 16 16 18 18 14 12 13 12 15 16 16 18 17 14 16 16 10 9 11 19 27 28 30 35 42 44 39 41 44 35 34 38 33 29 27 22 14 4 3 4 4 18 31 31 28 29 29 31 34 35 37 37 35 33 32 30 30 33
27 28 24 21 21 18 14 10 8 8 9 9 7 5 5 3 6 5 3 5 6 7 7 6 7 9 11 11 13 14 13 12 15 16 14 12 11 11 14 17 21 23 21 17 14 16 15 15 16 18 20 25 33 35 37 41 39 39 43 41 39 37 31 21 14 23 26 13 5 4 5 21 31 29 31 32 31 34 36 36 37 38 37 37 36 34 31 32
26 28 28 24 22 17 11 7 6 10 10 8 6 4 4 4 9 7 4 4 4 5 6 5 7 9 9 10 12 12 10 10 13 13 13 11 10 12 15 19 23 23 22 21 18 14 15 16 16 21 24 26 39 41 34 33 35 35 35 40 42 37 35 26 13 20 28 20 17 10 7 24 35 28 29 31 30 34 36 39 41 40 39 37 38 38 34 31
25 25 27 27 24 18 11 7 4 8 10 8 5 3 3 6 10 9 9 7 5 5 4 4 7 9 9 10 12 11 11 10 9 10 13 14 12 13 17 20 22 22 21 20 16 12 11 11 14 19 24 30 40 42 35 28 26 26 26 34 41 40 40 39 30 27 25 22 24 12 7 30 37 25 25 24 22 24 26 31 38 41 42 41 40 41 38 33
26 23 25 28 26 18 12 9 5 7 11 10 7 6 5 6 9 11 12 11 8 4 2 3 7 8 8 10 12 12 11 8 6 11 16 16 16 16 18 21 21 20 18 13 12 14 10 9 15 15 12 19 27 30 30 26 20 19 19 24 37 44 43 40 36 30 24 27 32 15 11 34 35 23 25 23 18 18 16 19 27 32 38 42 45 46 42 38
29 24 24 27 25 17 13 12 8 6 10 11 10 10 9 7 7 8 7 6 6 5 4 4 6 7 8 11 12 11 9 8 8 13 17 18 18 18 18 20 19 18 15 10 9 12 12 12 14 11 5 8 12 11 12 14 14 18 20 21 31 41 45 40 33 27 22 27 34 27 26 43 40 27 27 24 20 20 16 19 25 25 31 39 45 46 44 41
31 27 24 25 21 15 14 13 8 8 9 10 10 10 11 10 9 9 7 6 7 7 5 5 7 9 10 10 11 10 9 9 9 11 15 18 18 17 17 18 18 16 14 12 12 13 14 15 15 16 15 17 19 13 7 10 15 20 22 23 29 34 41 44 35 30 28 26 31 38 40 45 44 37 30 25 23 22 21 22 23 26 29 35 39 41 40 38
30 29 28 26 18 9 9 10 7 8 9 8 7 6 8 10 11 10 8 7 7 6 5 6 7 8 8 10 13 13 12 12 11 11 14 16 16 17 16 14 15 16 14 14 15 15 16 17 15 16 19 21 25 24 18 17 21 20 18 20 26 27 31 42 43 40 36 26 25 36 41 40 44 42 34 26 22 23 27 21 22 27 28 32 35 37 37 34
28 27 28 27 19 8 7 9 8 6 6 5 3 3 4 7 9 10 8 6 4 6 7 7 7 8 8 9 13 15 15 16 15 13 14 15 15 16 16 14 12 11 12 13 15 15 17 20 15 14 20 23 23 24 24 20 19 18 16 16 21 22 22 35 47 47 41 33 30 35 36 37 42 39 33 28 24 27 30 17 22 24 23 28 32 36 36 32
26 25 25 26 20 10 8 10 9 6 4 4 3 4 5 7 9 11 11 10 9 9 8 8 8 10 10 11 13 15 16 16 17 17 16 15 16 16 17 17 12 9 11 11 13 15 16 18 14 15 25 25 17 16 17 17 17 17 16 15 18 22 22 28 41 47 44 42 40 37 35 37 39 35 32 30 26 28 26 14 24 21 21 26 30 34 36 33
26 25 24 24 19 10 6 8 8 6 5 5 5 7 7 8 10 11 11 14 14 11 8 7 8 10 10 11 14 15 15 16 18 20 18 17 19 18 18 19 15 12 11 10 12 14 16 16 13 17 25 16 9 12 14 16 15 13 11 12 16 23 25 25 35 44 44 43 40 37 37 38 36 32 30 28 24 24 20 17 24 20 20 25 28 31 34 33
25 25 23 21 18 12 7 7 8 7 6 6 7 8 9 9 12 12 10 9 9 7 7 8 7 9 9 10 12 14 15 17 20 21 20 20 22 22 20 21 19 14 9 9 12 15 17 18 13 17 23 9 6 8 16 19 14 8 6 5 13 22 23 25 32 40 42 43 41 38 37 36 33 31 30 26 22 22 21 19 25 22 20 22 24 27 30 30
24 24 22 18 17 14 8 7 8 8 8 8 8 9 11 11 11 11 10 7 5 4 6 8 8 10 11 11 13 15 16 18 20 20 19 19 21 21 21 22 21 16 10 9 13 17 17 18 14 16 16 8 3 8 12 15 9 3 7 8 9 14 19 27 33 37 41 42 40 37 36 33 30 30 31 28 24 22 22 21 26 25 21 20 20 24 27 28
Wind_Direction
327 325 324 322 320 319 317 316 314 313 312 310 309 307 306 305 304 302 300 298 295 291 288 286 286 287 286 283 281 276 272 271 272 271 258 233 217 216 213 215 217 211 204 203 206 206 204 203 205 210 212 207 198 192 189 190 202 203 197 181 161 146 134 126 109 101 106 166 174 171 176 186 189 182 177 182 179 173 161 150 165 171 177 179 191 205 185 168
329 327 325 323 321 320 317 316 314 312 311 309 308 305 303 302 302 300 299 298 296 293 290 286 284 284 284 283 278 273 272 271 273 274 254 232 219 215 211 214 218 213 208 203 204 207 207 207 207 210 214 210 198 197 197 197 207 208 200 178 156 137 125 119 109 104 84 131 171 175 179 178 188 191 181 179 175 176 180 172 177 186 182 170 178 196 187 174
332 330 329 327 325 323 320 318 315 313 311 309 307 304 302 300 299 299 297 296 295 294 291 288 285 282 282 282 278 273 272 274 274 262 247 238 226 221 216 217 218 213 209 205 203 206 206 209 211 212 213 209 201 203 201 204 211 212 208 178 149 136 135 131 120 112 94 133 172 178 183 169 182 197 183 175 179 190 202 191 177 187 184 172 174 192 190 180
339 338 336 335 333 330 327 324 321 318 315 313 309 305 302 299 298 297 296 295 293 292 290 288 286 283 281 279 278 274 273 277 276 258 248 243 233 228 222 223 223 212 205 204 201 202 203 206 210 212 214 208 202 206 206 208 211 211 205 169 144 136 135 129 124 130 107 132 199 190 189 172 180 194 181 180 187 191 205 194 145 79 188 185 175 187 192 184
347 346 344 342 341 338 336 332 328 326 322 319 314 309 304 300 298 295 294 293 291 289 288 287 285 283 281 278 276 275 273 279 278 257 242 235 232 229 223 224 224 212 205 205 201 200 201 203 206 208 211 208 203 208 209 211 214 208 186 153 145 135 130 129 129 155 131 174 213 200 192 173 182 190 184 197 191 129 30 105 105 40 135 207 188 187 193 189
349 348 346 345 343 342 339 336 334 330 328 325 321 316 311 306 301 296 293 291 290 288 287 286 284 283 281 277 274 273 270 267 262 248 232 222 223 223 219 219 217 209 206 206 204 202 201 202 205 205 205 205 207 212 208 208 215 206 178 158 153 139 138 138 127 154 208 220 208 200 186 176 192 196 196 221 226 326 324 19 60 54 66 243 212 193 192 192
347 346 344 343 342 341 340 338 336 334 332 329 325 322 317 313 307 301 295 291 289 287 285 284 282 282 280 278 274 271 268 254 247 249 249 233 223 217 212 213 211 208 207 206 206 207 204 203 205 205 204 202 207 210 204 207 213 211 188 167 156 143 141 140 129 166 244 259 210 192 187 185 209 210 213 239 254 251 257 267 262 234 207 216 214 203 195 195
342 342 341 340 340 340 340 339 338 337 335 332 330 327 323 319 314 308 301 294 289 285 283 281 280 279 277 277 276 273 268 255 251 257 259 242 228 219 210 209 210 209 210 210 210 211 209 208 206 204 206 202 204 205 200 207 213 217 198 172 161 151 144 145 152 196 224 241 217 194 195 209 231 218 221 234 241 240 243 248 242 230 226 204 203 205 199 197
338 338 337 337 338 338 339 339 339 339 337 335 333 331 328 324 320 313 307 300 291 285 280 277 277 275 274 274 274 275 269 258 253 249 243 234 228 222 212 211 214 211 210 210 211 214 214 213 208 205 207 203 204 202 197 208 215 216 197 179 176 165 160 177 189 202 201 198 205 207 204 228 245 218 219 225 232 235 237 242 237 226 226 206 195 198 199 198
337 337 336 335 336 337 338 338 339 338 337 337 336 334 331 329 326 319 313 306 296 287 279 276 273 272 272 270 270 275 269 258 249 237 231 224 220 219 209 209 215 212 212 210 209 214 216 217 212 210 209 203 204 200 197 210 217 214 203 198 197 188 192 210 208 199 190 186 200 219 220 235 246 222 216 222 228 230 232 236 236 232 229 215 199 195 196 198
336 336 335 334 333 334 335 336 335 334 335 335 335 334 332 333 331 324 319 311 303 293 283 276 272 270 268 266 268 270 266 258 246 231 230 222 211 211 207 208 213 210 212 215 215 218 218 216 212 211 210 206 204 200 201 211 216 215 215 214 208 207 219 228 224 213 215 208 204 221 231 234 232 218 216 225 229 225 226 231 234 236 230 223 213 198 193 195
336 334 332 330 328 328 328 330 330 328 329 332 333 333 332 335 334 331 326 318 310 300 290 281 273 269 266 266 267 262 257 255 241 224 223 221 208 205 203 204 211 211 210 215 219 220 218 213 210 210 209 208 205 201 204 210 213 214 219 222 216 226 234 227 231 236 242 234 219 219 224 226 222 217 218 226 231 226 224 230 235 238 229 224 222 204 193 193
336 332 330 327 324 323 322 322 324 322 322 327 330 329 330 333 335 335 331 327 320 309 301 288 277 270 265 263 257 250 249 247 240 225 219 221 213 208 205 201 202 206 209 212 217 220 221 214 209 210 208 208 206 202 205 207 213 218 221 227 227 241 237 216 226 244 249 245 232 218 215 219 222 221 219 221 229 228 225 228 234 236 227 224 221 205 195 193
334 332 330 327 324 323 322 320 322 319 318 323 325 325 327 330 332 335 336 335 328 316 310 297 283 272 264 257 231 233 243 247 243 227 221 222 219 214 212 210 201 199 202 204 209 213 219 215 210 210 208 209 207 204 205 204 211 220 225 233 238 249 234 207 223 242 243 243 231 220 218 222 226 224 221 222 226 226 225 226 229 231 226 225 220 206 200 196
331 331 329 327 324 323 323 322 322 319 317 321 322 320 322 326 329 333 337 339 330 315 310 302 291 278 266 257 235 230 234 239 234 217 218 219 220 220 220 226 214 199 195 195 200 202 208 212 210 208 206 208 209 206 205 201 204 211 224 234 238 246 232 212 225 233 237 241 227 220 222 227 232 227 223 224 224 223 227 227 225 226 227 229 221 208 202 197
329 329 328 326 324 323 322 322 322 319 317 319 320 317 319 324 326 331 337 338 327 311 307 305 298 288 276 265 243 230 225 226 224 218 220 217 216 223 224 229 220 201 192 190 193 195 200 209 210 210 206 206 208 206 208 213 209 207 219 228 230 238 236 232 227 220 235 243 226 220 222 227 229 225 226 226 223 225 228 226 225 226 227 231 226 212 204 198
330 330 330 328 325 322 321 319 319 317 316 318 318 316 318 321 324 332 338 334 323 311 309 306 297 293 285 269 247 229 220 218 220 219 222 219 211 216 222 225 220 204 191 188 190 193 197 204 207 209 206 204 205 205 215 225 218 209 216 225 224 227 235 241 231 220 239 243 226 220 221 227 230 227 226 223 223 228 228 224 225 227 228 231 229 216 206 201
333 332 331 329 325 321 319 317 316 314 314 316 316 315 317 320 325 335 340 334 326 320 317 310 304 304 292 262 238 224 219 215 217 217 219 221 212 210 219 223 216 202 191 189 191 193 195 200 204 207 207 205 204 206 214 219 213 208 212 220 224 226 228 232 231 229 242 238 224 219 218 224 232 232 227 224 227 233 233 228 225 228 231 231 228 221 210 206
335 334 333 331 326 321 319 317 315 313 312 314 314 315 316 318 320 328 346 347 339 343 341 332 329 322 279 251 235 225 223 214 212 214 213 214 209 207 212 211 202 195 192 193 193 193 195 198 201 206 207 205 203 204 210 213 210 211 215 218 221 226 227 226 226 230 246 236 221 220 222 222 226 230 230 232 235 237 236 232 227 230 233 230 228 225 218 213
337 337 336 334 329 324 322 320 316 314 314 314 313 313 312 313 312 314 0 13 359 3 358 343 345 335 277 252 239 229 226 216 210 210 208 205 202 203 204 197 191 191 195 196 195 194 196 199 202 205 206 204 203 204 210 214 211 214 223 223 222 227 228 224 220 224 243 236 221 221 226 226 226 231 235 236 236 235 233 231 230 232 233 229 227 227 224 219
338 338 337 337 333 327 324 322 319 317 318 317 315 316 317 322 325 326 349 18 12 358 345 343 350 346 309 261 243 229 222 216 210 207 206 201 197 199 199 192 188 193 197 197 198 198 199 205 208 210 208 205 205 207 213 218 214 214 221 223 225 229 228 222 218 223 238 236 229 225 225 227 229 232 236 236 234 234 233 232 230 229 230 228 227 227 223 215
336 337 336 336 334 330 326 324 322 320 320 319 320 321 323 324 330 333 335 353 9 353 331 337 342 341 331 296 267 238 222 217 208 202 204 200 197 199 198 195 195 198 197 195 199 201 203 212 215 214 210 207 208 211 215 220 219 219 220 222 226 226 228 226 219 221 232 236 236 231 227 232 236 235 238 236 236 240 240 239 233 225 226 227 227 225 218 207
335 336 335 334 334 331 328 326 324 321 320 321 321 320 319 319 322 331 331 337 351 340 322 330 330 332 331 321 312 278 236 222 204 194 201 201 199 200 200 200 201 201 199 197 200 202 206 215 217 213 211 210 211 212 216 221 223 223 223 226 225 221 226 228 218 218 229 235 240 240 237 240 240 236 237 239 241 244 245 245 241 230 225 224 223 221 215 206
335 336 334 331 332 332 330 329 325 322 320 319 318 315 315 315 318 326 325 327 334 321 314 323 318 323 333 333 330 328 292 240 205 187 195 203 199 201 204 205 204 205 204 202 204 207 210 216 218 214 212 213 213 212 216 221 224 225 224 225 224 219 219 222 221 222 230 235 236 245 251 247 239 230 230 235 236 240 244 243 241 234 226 224 227 224 217 211
336 337 335 330 331 332 331 330 324 319 317 317 316 313 314 312 315 322 318 320 326 309 308 320 319 323 334 338 337 341 339 260 207 191 195 202 200 201 205 207 208 210 210 207 209 215 216 216 218 217 214 214 215 216 216 217 223 226 223 221 220 218 216 219 226 231 240 242 230 231 252 254 242 231 228 229 227 231 238 238 239 235 225 225 230 227 219 214
335 337 336 332 331 331 329 327 321 317 316 316 312 310 310 310 314 318 313 313 311 290 299 317 325 325 323 327 336 342 343 165 185 202 205 203 202 203 205 208 212 215 214 212 215 220 219 217 216 217 218 217 216 218 217 216 223 228 224 217 217 221 217 219 232 240 248 250 235 230 246 260 248 235 230 227 225 230 234 234 237 234 226 223 224 222 219 213
335 337 338 335 332 331 326 321 318 318 318 316 312 310 311 311 314 314 312 311 295 280 289 309 322 326 327 325 332 346 343 263 173 202 209 205 203 203 206 209 212 216 216 212 218 222 220 218 217 211 218 221 217 219 218 214 219 227 226 219 219 225 219 218 234 242 241 250 249 242 247 258 250 243 237 228 225 229 232 232 233 231 227 222 218 217 216 211
337 337 339 337 333 330 323 318 318 320 320 317 316 317 315 314 310 304 307 320 293 293 296 304 314 318 320 311 315 345 341 313 242 205 207 205 204 205 209 210 210 215 215 211 218 223 220 219 218 212 215 223 220 221 219 212 216 226 229 224 224 227 222 223 238 248 245 256 262 250 246 258 258 255 247 228 221 223 228 231 230 229 227 222 218 217 213 211
338 337 340 339 335 330 322 319 320 320 318 315 314 315 312 309 297 287 277 237 285 299 306 307 308 311 311 288 272 268 276 299 304 281 233 205 207 210 212 213 213 216 220 221 222 225 225 225 223 217 218 223 224 226 222 215 217 224 229 230 229 230 231 234 244 253 252 254 258 253 249 250 261 258 242 219 216 220 225 230 230 227 226 222 221 218 214 214
337 338 341 339 335 330 324 321 321 319 314 310 309 309 308 301 281 266 218 257 294 304 304 305 304 310 319 313 282 251 255 283 300 301 269 216 215 215 212 214 217 218 223 228 229 227 227 231 231 227 224 223 225 229 225 222 222 224 226 229 232 234 235 240 248 251 251 245 246 251 251 247 254 258 243 222 222 226 226 229 229 228 226 225 225 222 218 216
337 338 339 337 334 331 326 323 323 319 313 308 307 308 308 295 265 221 191 272 298 308 306 312 315 317 330 337 324 279 261 280 297 307 295 248 223 217 214 212 221 227 227 229 231 229 227 227 227 232 233 228 228 230 230 230 226 222 222 222 228 234 233 240 245 237 234 240 243 249 252 248 240 248 247 240 239 237 231 229 229 227 226 226 228 225 222 220
336 337 337 335 335 335 332 330 331 329 320 310 305 308 305 277 244 216 289 293 308 327 328 332 332 331 341 347 334 309 285 286 304 336 10 17 40 162 196 186 210 234 233 229 229 228 227 226 223 228 236 230 228 228 227 231 227 219 218 217 218 223 223 229 230 221 221 234 242 248 251 246 243 247 247 246 247 242 235 233 230 228 227 227 229 229 225 222
334 335 334 334 338 342 341 337 336 338 332 317 309 316 311 239 218 311 323 323 329 332 335 338 340 344 350 348 339 329 313 297 300 326 23 10 26 61 59 158 191 210 233 228 225 224 227 230 226 225 230 227 223 222 218 220 220 215 212 211 208 198 204 221 216 235 234 221 238 246 248 246 247 249 245 242 244 244 240 239 235 231 231 230 232 233 230 225
332 332 331 336 344 347 344 340 336 337 340 332 323 334 355 154 345 342 341 342 332 329 337 341 343 353 359 360 356 347 332 312 303 293 332 348 359 31 39 108 192 224 248 221 217 220 219 223 223 221 222 222 221 222 219 217 217 216 212 210 212 210 209 210 190 209 203 196 238 242 237 233 242 246 244 239 239 241 243 247 242 235 232 234 235 234 233 229
331 329 333 341 347 345 341 340 336 336 342 343 342 3 47 55 5 345 337 335 331 329 336 343 348 360 3 7 12 356 337 326 314 300 309 342 356 356 8 25 30 351 292 235 240 235 224 222 223 222 221 220 221 223 223 217 216 219 214 210 216 217 214 215 230 229 207 190 236 235 226 228 246 252 249 242 239 237 238 244 244 236 232 232 234 233 233 233
330 328 336 344 344 339 337 336 335 335 339 347 359 25 47 29 347 341 329 324 328 325 330 344 353 3 3 3 10 352 336 332 323 316 319 339 354 342 346 5 11 23 26 1 335 333 266 234 221 218 222 220 219 220 219 215 213 214 211 211 216 219 216 218 236 237 216 201 231 232 229 234 244 252 245 239 239 235 233 237 240 238 234 231 232 233 234 235
331 332 341 344 340 336 331 327 328 331 332 343 4 18 24 4 320 324 318 314 321 323 334 355 0 3 359 358 4 349 337 338 335 337 343 344 347 327 317 339 352 9 22 9 352 12 337 271 217 201 214 218 218 221 222 220 216 210 210 215 215 216 220 221 225 228 206 207 236 230 225 219 220 229 227 227 234 233 230 232 233 234 235 234 234 235 236 237
337 337 343 343 338 333 323 316 316 320 321 322 337 356 15 3 314 309 309 310 317 322 335 355 358 358 355 355 359 346 339 341 339 344 354 358 358 324 303 313 326 322 350 4 357 348 338 298 223 200 206 212 213 218 223 225 224 220 220 220 211 204 213 216 216 223 209 216 261 229 221 217 214 216 214 214 225 231 229 228 228 228 230 234 236 236 238 240
338 336 340 340 336 331 323 311 303 308 306 285 307 6 3 352 312 303 306 311 317 323 330 337 338 339 346 348 340 335 340 340 337 342 350 349 341 316 301 302 305 300 311 341 348 346 350 321 238 206 202 208 210 212 216 218 220 222 225 227 218 213 213 211 211 218 210 202 245 236 226 228 226 225 222 219 221 228 230 228 228 228 225 228 232 233 236 239
337 336 340 340 338 336 329 312 292 289 277 238 186 123 180 209 291 300 324 328 323 324 321 316 321 326 333 334 324 326 338 337 334 339 341 337 331 310 299 300 295 290 297 316 339 347 353 335 282 221 199 202 207 209 213 215 213 214 217 218 217 216 215 215 218 220 221 215 199 210 248 243 236 233 234 231 226 227 229 229 230 230 228 227 230 231 232 232
339 338 341 343 342 339 333 314 274 254 245 219 193 180 179 226 279 277 314 341 338 331 322 317 320 325 329 328 322 325 335 334 328 332 338 342 338 316 302 306 305 297 294 300 325 347 346 332 303 258 223 206 205 208 212 215 214 214 216 214 214 212 207 207 218 219 222 231 227 204 268 257 247 243 243 241 238 236 233 230 230 229 228 229 230 232 231 226
345 343 343 346 347 346 347 335 269 237 223 205 198 195 182 258 281 271 275 322 338 315 314 327 324 326 333 329 327 327 329 329 322 325 335 335 329 317 307 309 309 302 302 304 310 331 335 327 308 274 250 215 203 207 210 211 212 215 219 219 218 215 208 206 208 212 213 224 243 251 286 263 253 247 248 247 243 243 239 234 233 230 229 229 229 233 233 223
350 349 345 346 350 354 2 0 293 232 217 206 207 210 212 262 276 273 272 282 301 309 315 327 319 325 335 326 322 321 320 322 322 328 331 323 317 313 307 310 309 303 308 308 304 320 332 331 324 291 257 221 206 207 209 207 212 221 225 222 220 218 216 216 218 218 209 211 228 238 273 257 250 243 245 247 245 247 244 238 235 232 232 230 228 231 233 224
351 354 351 349 351 353 360 1 332 246 229 227 223 224 237 274 285 283 278 277 286 307 307 301 312 323 325 313 308 311 315 316 315 321 322 317 314 310 303 305 307 304 308 310 311 322 322 323 333 322 278 230 215 213 217 219 224 234 235 228 223 221 220 220 220 219 216 215 218 214 244 248 244 239 242 244 242 241 242 248 246 237 230 227 225 228 231 229
348 356 357 354 350 345 349 358 346 288 257 251 252 257 261 277 289 285 280 273 272 280 280 287 302 303 298 298 299 303 306 310 313 314 314 312 310 307 303 303 305 305 303 294 294 300 291 294 310 311 282 235 229 222 224 238 241 230 227 223 221 221 221 219 214 209 213 218 215 213 233 242 244 249 247 240 237 241 256 271 262 242 227 223 221 223 227 229
346 351 357 358 352 339 344 357 348 315 296 280 275 276 272 270 271 271 269 262 260 262 267 283 292 293 296 301 306 310 309 309 305 297 301 306 306 304 303 304 306 305 297 278 260 260 269 279 287 283 269 263 269 265 246 282 276 239 225 218 213 217 221 219 214 210 213 214 213 219 232 241 249 254 246 231 229 247 274 278 251 228 221 220 219 220 222 224
346 348 351 357 357 340 340 359 354 327 321 312 293 272 266 267 270 276 272 260 268 278 271 275 287 298 311 314 312 314 313 307 296 286 294 301 302 302 301 306 311 300 286 276 261 253 262 266 270 284 282 280 286 276 253 270 276 251 238 227 212 213 219 218 215 216 217 213 216 226 230 239 250 253 247 235 231 255 279 269 223 214 218 219 218 218 219 220
347 348 347 351 357 351 331 347 356 338 328 334 312 250 262 277 282 295 291 262 285 314 294 276 280 290 302 309 308 308 308 306 301 297 300 300 298 301 302 308 315 296 278 274 261 252 260 263 266 291 294 289 289 274 255 262 272 259 256 249 227 218 218 219 219 218 219 220 225 231 230 236 248 249 247 245 245 267 280 250 194 200 212 214 216 215 215 214
346 348 347 348 354 358 338 340 353 347 326 321 293 266 281 291 292 302 305 295 296 303 295 287 287 286 290 296 298 300 302 301 299 298 300 298 293 297 302 304 307 295 278 265 251 245 252 258 267 300 304 293 276 258 252 258 270 267 268 278 259 231 215 219 220 218 221 227 233 237 236 240 248 250 252 257 260 273 276 218 177 188 203 209 213 211 208 207
344 347 346 345 350 358 347 346 0 5 344 324 301 290 296 303 301 300 303 299 292 287 290 299 298 291 292 294 292 295 296 291 291 295 296 294 288 289 295 296 297 298 281 256 240 236 241 249 264 305 313 298 227 213 228 240 262 275 280 284 256 224 211 215 218 216 219 226 232 238 239 242 250 253 257 264 263 266 262 206 180 187 199 206 210 207 205 206
344 345 342 341 348 357 356 353 2 10 359 338 314 306 311 316 314 314 319 313 302 299 299 305 311 303 298 299 294 293 292 288 290 293 291 286 282 281 283 285 290 294 275 249 235 228 235 244 258 314 321 296 183 215 227 226 240 268 309 286 218 209 208 208 210 210 214 221 228 233 237 242 248 249 252 258 255 256 256 216 192 195 202 206 211 209 206 208
343 341 340 341 348 356 2 357 359 8 360 337 319 316 322 323 318 320 330 336 337 329 304 302 310 304 302 308 303 297 293 289 288 288 284 279 274 271 272 273 277 282 267 241 232 224 230 243 262 321 321 270 297 312 241 224 234 268 17 48 135 175 198 200 202 205 208 216 224 228 232 239 243 244 247 253 248 246 250 225 199 199 206 206 213 214 208 204
Height
3144 3143 3142 3141 3139 3138 3137 3136 3135 3134 3134 3133 3132 3131 3130 3129 3129 3128 3128 3127 3126 3126 3126 3126 3126 3125 3126 3126 3126 3126 3126 3125 3125 3126 3127 3127 3127 3127 3129 3131 3132 3134 3136 3137 3139 3141 3143 3145 3146 3147 3149 3150 3151 3152 3152 3152 3153 3154 3155 3155 3155 3156 3156 3156 3156 3157 3157 3158 3158 3158 3159 3159 3159 3160 3160 3161 3162 3163 3163 3163 3164 3165 3165 3167 3169 3171 3171 3170
3143 3142 3140 3139 3138 3137 3136 3135 3134 3133 3132 3131 3131 3130 3129 3128 3127 3126 3126 3126 3125 3124 3124 3124 3124 3124 3124 3124 3125 3124 3124 3124 3124 3125 3125 3124 3124 3125 3127 3129 3130 3132 3134 3137 3139 3140 3143 3144 3145 3146 3147 3149 3151 3151 3151 3152 3152 3153 3154 3154 3155 3156 3156 3156 3156 3157 3157 3158 3158 3158 3159 3159 3160 3160 3160 3161 3161 3162 3163 3162 3163 3164 3165 3166 3167 3170 3171 3171
3142 3141 3139 3138 3137 3135 3134 3133 3132 3131 3130 3129 3129 3128 3127 3126 3125 3125 3124 3124 3123 3123 3122 3122 3122 3122 3122 3122 3123 3123 3123 3123 3123 3123 3123 3122 3123 3124 3126 3127 3129 3132 3134 3136 3138 3140 3143 3144 3144 3145 3146 3148 3149 3149 3150 3151 3151 3153 3153 3154 3155 3155 3156 3156 3156 3157 3157 3158 3159 3159 3159 3159 3160 3160 3161 3162 3162 3162 3162 3163 3163 3164 3165 3165 3166 3168 3170 3171
3141 3139 3138 3137 3135 3134 3133 3131 3130 3129 3128 3127 3126 3126 3125 3124 3123 3123 3122 3122 3122 3121 3120 3120 3120 3120 3120 3120 3120 3121 3121 3121 3121 3121 3121 3122 3122 3123 3125 3126 3128 3131 3133 3135 3136 3138 3140 3141 3142 3144 3145 3147 3148 3148 3149 3150 3151 3152 3153 3153 3154 3155 3155 3156 3156 3157 3158 3159 3160 3160 3159 3159 3159 3160 3161 3161 3161 3162 3163 3163 3163 3164 3165 3165 3166 3168 3170 3171
3140 3139 3137 3136 3134 3133 3131 3130 3129 3127 3126 3125 3124 3123 3122 3122 3121 3121 3120 3120 3120 3119 3119 3119 3118 3118 3118 3118 3119 3119 3120 3120 3119 3119 3120 3120 3121 3122 3124 3125 3127 3130 3131 3132 3133 3134 3136 3137 3139 3141 3143 3145 3146 3146 3148 3150 3150 3151 3151 3153 3153 3154 3155 3155 3156 3157 3158 3159 3160 3160 3160 3160 3159 3159 3160 3160 3160 3161 3162 3163 3164 3165 3165 3166 3167 3168 3169 3171
3140 3138 3137 3135 3134 3132 3130 3129 3127 3126 3125 3123 3122 3121 3120 3119 3119 3118 3118 3117 3118 3117 3117 3117 3116 3116 3116 3116 3117 3117 3118 3119 3118 3117 3118 3119 3119 3120 3122 3123 3125 3128 3129 3130 3131 3132 3133 3135 3136 3138 3141 3143 3145 3146 3148 3149 3150 3150 3151 3152 3152 3153 3154 3155 3156 3157 3158 3159 3160 3160 3160 3160 3159 3159 3160 3160 3160 3161 3162 3163 3165 3166 3166 3167 3168 3168 3169 3171
3139 3138 3136 3134 3133 3131 3130 3128 3126 3125 3123 3122 3120 3119 3118 3117 3117 3116 3115 3115 3115 3115 3115 3114 3114 3115 3115 3114 3115 3115 3116 3117 3116 3116 3117 3118 3118 3118 3120 3121 3123 3125 3126 3128 3129 3129 3131 3132 3133 3137 3139 3141 3143 3146 3148 3148 3149 3149 3150 3151 3151 3152 3153 3154 3156 3157 3158 3159 3160 3160 3160 3160 3160 3160 3160 3159 3160 3161 3162 3163 3165 3166 3166 3167 3168 3169 3170 3172
3139 3137 3135 3134 3132 3130 3129 3127 3125 3124 3122 3120 3119 3117 3116 3115 3114 3114 3113 3113 3113 3112 3112 3112 3112 3112 3113 3112 3113 3113 3114 3114 3114 3115 3116 3117 3116 3117 3118 3119 3120 3122 3125 3127 3128 3129 3130 3130 3133 3136 3137 3140 3143 3145 3147 3147 3147 3148 3149 3150 3151 3151 3152 3154 3155 3157 3158 3158 3159 3160 3160 3160 3160 3160 3160 3160 3160 3161 3162 3164 3165 3166 3166 3167 3168 3169 3171 3172
3138 3136 3135 3133 3131 3130 3128 3126 3125 3123 3121 3119 3118 3116 3115 3113 3112 3111 3111 3110 3110 3110 3109 3109 3109 3110 3110 3111 3111 3111 3112 3112 3113 3113 3114 3115 3115 3116 3117 3118 3119 3121 3123 3126 3128 3128 3128 3129 3133 3135 3137 3140 3143 3144 3145 3145 3146 3148 3149 3150 3150 3150 3151 3152 3154 3156 3157 3157 3158 3158 3159 3159 3160 3161 3160 3160 3161 3161 3162 3164 3165 3166 3166 3167 3168 3169 3171 3172
3137 3135 3134 3132 3130 3128 3127 3125 3124 3122 3120 3118 3117 3115 3113 3112 3111 3109 3109 3108 3107 3107 3107 3106 3106 3107 3108 3108 3109 3110 3109 3110 3111 3111 3112 3112 3113 3114 3115 3117 3119 3120 3122 3124 3125 3126 3127 3130 3134 3136 3138 3141 3141 3143 3143 3143 3145 3147 3149 3149 3148 3149 3150 3151 3152 3154 3157 3157 3158 3158 3158 3159 3159 3160 3159 3159 3160 3161 3162 3163 3164 3165 3166 3167 3168 3169 3170 3172
3136 3134 3132 3131 3129 3127 3126 3124 3123 3121 3119 3117 3115 3114 3112 3111 3109 3108 3107 3105 3105 3104 3104 3103 3103 3104 3105 3105 3107 3108 3107 3107 3109 3109 3110 3110 3111 3112 3114 3116 3118 3120 3121 3123 3124 3126 3128 3131 3134 3136 3137 3139 3139 3141 3142 3142 3145 3146 3147 3146 3146 3147 3148 3149 3150 3152 3155 3157 3157 3158 3159 3159 3158 3158 3158 3158 3159 3160 3162 3162 3163 3164 3166 3167 3168 3168 3170 3171
3135 3133 3131 3130 3128 3126 3125 3123 3122 3120 3118 3116 3114 3112 3110 3109 3108 3106 3105 3103 3102 3102 3101 3101 3101 3101 3101 3103 3105 3105 3105 3105 3106 3107 3108 3109 3110 3110 3112 3114 3117 3119 3121 3122 3124 3127 3129 3130 3132 3133 3134 3136 3138 3140 3141 3142 3144 3144 3145 3144 3144 3146 3145 3146 3148 3150 3153 3154 3156 3158 3158 3157 3156 3157 3157 3158 3159 3160 3161 3162 3163 3164 3165 3166 3167 3168 3169 3170
3133 3131 3130 3128 3126 3125 3123 3122 3121 3118 3116 3115 3113 3111 3109 3108 3106 3105 3103 3102 3100 3099 3099 3099 3098 3098 3098 3101 3103 3102 3102 3103 3104 3106 3107 3108 3109 3110 3111 3112 3115 3118 3120 3122 3125 3126 3128 3128 3129 3131 3133 3135 3136 3138 3139 3140 3141 3142 3143 3143 3143 3144 3142 3143 3146 3148 3150 3151 3154 3157 3155 3154 3154 3156 3157 3157 3158 3159 3160 3161 3162 3163 3164 3165 3166 3167 3168 3169
3132 3130 3128 3126 3124 3123 3121 3120 3119 3117 3115 3113 3112 3109 3107 3106 3105 3103 3102 3100 3098 3097 3097 3096 3095 3095 3094 3098 3101 3099 3100 3101 3103 3105 3106 3107 3108 3109 3110 3111 3112 3114 3117 3120 3123 3125 3126 3127 3128 3129 3131 3133 3135 3137 3137 3138 3139 3139 3141 3141 3141 3141 3140 3141 3144 3146 3148 3149 3152 3154 3152 3151 3153 3155 3155 3156 3157 3158 3159 3160 3161 3161 3162 3163 3164 3166 3167 3168
3130 3128 3126 3124 3122 3121 3119 3117 3116 3115 3113 3112 3110 3108 3106 3105 3103 3102 3100 3098 3096 3094 3094 3093 3093 3092 3092 3095 3097 3096 3098 3100 3101 3102 3102 3104 3106 3107 3109 3110 3111 3112 3114 3117 3120 3122 3124 3124 3125 3126 3128 3131 3133 3134 3135 3135 3136 3137 3138 3138 3139 3140 3138 3140 3143 3144 3146 3147 3150 3152 3150 3150 3152 3153 3154 3155 3156 3157 3158 3158 3159 3160 3161 3162 3163 3164 3166 3167
3129 3127 3125 3123 3120 3118 3117 3115 3114 3112 3111 3110 3108 3105 3104 3103 3101 3100 3099 3097 3095 3092 3091 3090 3090 3090 3090 3091 3092 3093 3095 3096 3097 3098 3099 3102 3105 3106 3108 3109 3110 3111 3112 3114 3117 3119 3121 3121 3122 3124 3126 3128 3130 3131 3132 3133 3133 3134 3135 3135 3136 3138 3138 3138 3140 3142 3144 3146 3148 3149 3148 3148 3150 3151 3152 3153 3154 3155 3156 3157 3158 3159 3160 3161 3162 3163 3165 3166
3127 3126 3123 3121 3118 3116 3115 3113 3112 3110 3109 3108 3106 3103 3102 3101 3100 3099 3097 3095 3093 3090 3088 3088 3087 3087 3088 3088 3088 3089 3090 3091 3092 3094 3096 3099 3102 3104 3105 3106 3107 3109 3110 3112 3113 3115 3117 3118 3120 3121 3123 3125 3127 3129 3130 3127 3126 3129 3131 3132 3134 3136 3137 3137 3138 3140 3142 3143 3144 3146 3147 3147 3148 3149 3150 3151 3152 3153 3154 3155 3156 3157 3159 3159 3161 3162 3163 3164
3126 3124 3122 3120 3117 3114 3113 3111 3109 3108 3106 3105 3103 3101 3100 3098 3098 3097 3096 3094 3091 3088 3086 3085 3084 3084 3085 3084 3085 3085 3085 3086 3088 3090 3093 3096 3099 3101 3102 3104 3106 3107 3107 3108 3109 3111 3113 3115 3117 3119 3120 3121 3122 3122 3120 3118 3122 3126 3128 3130 3132 3134 3135 3135 3137 3138 3140 3140 3142 3144 3144 3145 3146 3147 3148 3149 3150 3151 3152 3153 3154 3156 3157 3158 3159 3160 3162 3163
3125 3123 3121 3118 3115 3112 3110 3109 3106 3105 3104 3103 3101 3099 3097 3097 3096 3097 3096 3092 3088 3086 3084 3083 3082 3083 3083 3082 3082 3081 3080 3082 3084 3086 3089 3093 3096 3098 3100 3102 3102 3103 3103 3103 3105 3107 3109 3111 3112 3113 3112 3110 3111 3112 3113 3116 3123 3126 3128 3130 3131 3132 3132 3134 3136 3137 3139 3139 3140 3141 3142 3143 3144 3145 3146 3146 3147 3149 3150 3151 3153 3154 3156 3157 3158 3159 3160 3161
3122 3120 3119 3117 3113 3110 3109 3107 3104 3102 3102 3100 3099 3097 3095 3095 3094 3095 3095 3091 3087 3086 3084 3082 3081 3081 3081 3079 3078 3076 3077 3079 3080 3082 3086 3089 3092 3095 3097 3098 3098 3099 3099 3100 3102 3104 3106 3106 3104 3101 3099 3101 3107 3112 3115 3119 3124 3126 3127 3129 3130 3131 3130 3132 3135 3137 3138 3138 3138 3139 3140 3142 3143 3142 3143 3144 3146 3147 3148 3149 3150 3152 3153 3154 3156 3157 3158 3160
3120 3118 3116 3114 3112 3109 3107 3105 3103 3101 3099 3098 3096 3094 3092 3092 3091 3091 3091 3090 3087 3086 3084 3082 3081 3080 3078 3076 3073 3073 3076 3077 3079 3081 3083 3086 3089 3091 3093 3093 3094 3094 3095 3099 3102 3103 3104 3100 3096 3094 3098 3105 3111 3114 3117 3120 3122 3124 3126 3127 3128 3128 3128 3131 3134 3135 3138 3137 3136 3138 3139 3140 3141 3141 3142 3143 3143 3143 3144 3145 3147 3149 3150 3152 3154 3155 3157 3158
3118 3116 3114 3113 3110 3107 3105 3103 3101 3099 3098 3096 3095 3093 3091 3090 3089 3088 3088 3088 3087 3085 3083 3081 3081 3079 3077 3075 3072 3071 3073 3075 3079 3081 3081 3084 3085 3086 3089 3090 3090 3091 3094 3098 3099 3100 3099 3094 3092 3097 3103 3109 3112 3114 3117 3119 3121 3122 3124 3125 3125 3125 3127 3129 3131 3134 3136 3136 3136 3137 3138 3138 3138 3139 3140 3140 3139 3140 3142 3144 3145 3147 3148 3149 3151 3153 3155 3157
3117 3114 3112 3111 3109 3106 3104 3102 3100 3098 3096 3095 3094 3092 3091 3089 3089 3088 3087 3086 3085 3084 3082 3080 3080 3078 3076 3074 3071 3070 3070 3072 3077 3080 3080 3081 3083 3085 3087 3087 3087 3090 3092 3092 3092 3093 3092 3089 3092 3100 3105 3107 3110 3113 3115 3117 3119 3119 3121 3122 3121 3123 3126 3127 3129 3132 3134 3134 3134 3136 3137 3136 3136 3138 3138 3137 3137 3139 3141 3143 3145 3146 3146 3147 3149 3151 3153 3154
3115 3113 3110 3109 3107 3105 3103 3101 3099 3097 3096 3094 3093 3091 3090 3088 3088 3087 3086 3085 3084 3083 3081 3079 3079 3077 3075 3072 3069 3069 3069 3070 3075 3080 3079 3079 3081 3083 3084 3085 3087 3088 3088 3088 3090 3090 3088 3089 3095 3100 3103 3105 3109 3110 3112 3115 3115 3116 3118 3118 3117 3121 3124 3124 3127 3130 3131 3131 3132 3134 3134 3133 3133 3134 3134 3135 3137 3138 3139 3141 3143 3143 3144 3146 3148 3150 3152 3153
3113 3111 3109 3107 3106 3104 3102 3099 3097 3096 3095 3093 3092 3090 3089 3087 3086 3086 3085 3084 3083 3081 3079 3077 3077 3076 3074 3072 3070 3069 3069 3069 3073 3077 3076 3076 3079 3080 3082 3084 3084 3084 3085 3088 3090 3089 3089 3092 3096 3098 3100 3103 3105 3107 3110 3111 3113 3114 3113 3113 3115 3119 3122 3123 3126 3128 3129 3128 3129 3132 3132 3129 3130 3131 3131 3132 3134 3135 3136 3137 3139 3140 3142 3144 3146 3149 3151 3152
3111 3109 3107 3105 3103 3102 3100 3098 3096 3094 3093 3092 3091 3090 3088 3086 3085 3085 3083 3082 3081 3080 3078 3076 3075 3074 3073 3071 3069 3068 3068 3068 3070 3072 3072 3073 3075 3076 3078 3080 3080 3081 3083 3088 3089 3087 3087 3092 3095 3096 3098 3101 3103 3104 3106 3109 3113 3110 3107 3110 3115 3118 3121 3122 3124 3127 3127 3126 3127 3130 3130 3127 3127 3127 3127 3129 3130 3131 3133 3133 3135 3137 3139 3141 3143 3146 3148 3150
3109 3107 3106 3103 3101 3099 3097 3095 3093 3092 3090 3090 3089 3088 3087 3085 3084 3083 3082 3081 3079 3077 3077 3075 3073 3072 3072 3071 3069 3068 3068 3066 3066 3068 3068 3069 3070 3072 3073 3074 3077 3078 3081 3087 3084 3080 3084 3089 3092 3094 3096 3098 3099 3099 3101 3107 3109 3102 3103 3111 3115 3117 3119 3120 3123 3125 3125 3124 3124 3126 3128 3126 3123 3122 3124 3126 3126 3128 3129 3129 3131 3134 3136 3138 3140 3142 3145 3147
3108 3105 3104 3102 3099 3097 3094 3092 3090 3089 3088 3087 3086 3086 3085 3083 3083 3082 3082 3081 3078 3075 3074 3074 3072 3071 3071 3071 3069 3069 3068 3067 3066 3065 3065 3066 3067 3068 3068 3070 3074 3076 3080 3081 3076 3075 3081 3084 3085 3090 3093 3092 3092 3093 3098 3104 3104 3099 3105 3112 3114 3117 3118 3119 3122 3123 3124 3125 3120 3119 3125 3125 3120 3119 3121 3122 3123 3123 3123 3125 3127 3130 3132 3134 3137 3139 3142 3145
3106 3104 3102 3100 3098 3095 3092 3090 3088 3087 3085 3084 3083 3083 3083 3082 3082 3081 3082 3081 3076 3073 3073 3072 3071 3070 3069 3069 3068 3068 3068 3067 3065 3064 3063 3064 3064 3065 3065 3069 3073 3076 3078 3077 3074 3077 3080 3080 3084 3089 3089 3087 3090 3094 3098 3102 3101 3102 3108 3111 3114 3116 3117 3119 3121 3121 3124 3122 3115 3114 3120 3122 3117 3115 3117 3118 3117 3117 3118 3121 3124 3127 3128 3130 3133 3136 3140 3143
3105 3102 3101 3098 3096 3094 3091 3088 3086 3084 3083 3081 3081 3081 3080 3081 3080 3080 3080 3078 3073 3072 3071 3070 3070 3068 3066 3065 3065 3065 3066 3065 3064 3064 3063 3063 3063 3063 3064 3069 3073 3074 3075 3075 3075 3077 3079 3081 3085 3085 3084 3087 3091 3095 3098 3099 3101 3105 3109 3111 3113 3114 3115 3118 3118 3121 3122 3115 3110 3111 3116 3120 3116 3110 3111 3112 3111 3112 3115 3118 3121 3124 3126 3128 3130 3133 3137 3140
3103 3101 3099 3096 3094 3092 3089 3087 3086 3083 3081 3079 3079 3078 3078 3078 3078 3079 3078 3075 3073 3071 3069 3068 3068 3067 3065 3064 3062 3063 3064 3064 3063 3063 3063 3062 3062 3062 3064 3068 3071 3071 3071 3071 3073 3075 3078 3081 3081 3081 3083 3088 3092 3094 3096 3098 3101 3105 3107 3110 3112 3112 3114 3115 3115 3118 3114 3107 3108 3110 3113 3117 3111 3104 3106 3108 3109 3112 3113 3114 3117 3120 3123 3125 3126 3129 3133 3137
3101 3099 3097 3094 3092 3090 3088 3086 3084 3082 3080 3078 3077 3077 3077 3077 3077 3077 3075 3073 3073 3071 3068 3068 3067 3066 3066 3065 3063 3062 3062 3062 3062 3063 3063 3063 3062 3063 3065 3066 3067 3067 3065 3066 3069 3072 3074 3076 3078 3080 3083 3086 3088 3090 3093 3096 3098 3102 3104 3108 3110 3110 3111 3110 3109 3109 3106 3104 3107 3109 3111 3109 3101 3099 3103 3105 3107 3109 3109 3111 3113 3116 3119 3121 3123 3125 3129 3133
3099 3097 3094 3092 3091 3089 3087 3084 3082 3081 3079 3077 3075 3075 3075 3076 3076 3076 3074 3073 3073 3072 3070 3069 3068 3067 3066 3065 3063 3062 3062 3061 3061 3063 3064 3064 3063 3063 3064 3063 3063 3063 3061 3063 3067 3068 3070 3072 3076 3079 3079 3081 3083 3084 3087 3090 3093 3096 3099 3102 3103 3105 3106 3105 3104 3103 3102 3104 3105 3107 3108 3101 3093 3095 3098 3101 3104 3106 3107 3109 3111 3114 3116 3118 3121 3123 3125 3129
3097 3095 3093 3091 3090 3087 3085 3082 3080 3079 3078 3076 3074 3073 3073 3075 3075 3075 3074 3074 3073 3072 3071 3070 3068 3068 3066 3065 3064 3062 3061 3060 3060 3062 3063 3063 3063 3062 3061 3061 3061 3061 3059 3060 3063 3064 3064 3064 3066 3070 3072 3075 3078 3079 3082 3086 3090 3091 3094 3098 3098 3096 3097 3098 3099 3099 3100 3102 3103 3103 3100 3091 3087 3089 3093 3098 3102 3104 3106 3107 3109 3112 3113 3116 3118 3120 3122 3125
3095 3092 3091 3090 3088 3086 3083 3081 3079 3077 3076 3075 3074 3072 3073 3074 3075 3074 3073 3073 3072 3071 3071 3070 3068 3068 3066 3066 3065 3063 3062 3061 3060 3061 3062 3063 3063 3063 3062 3061 3060 3060 3060 3062 3061 3060 3058 3057 3060 3066 3069 3072 3075 3076 3080 3085 3086 3087 3091 3094 3090 3087 3091 3096 3097 3096 3098 3101 3098 3093 3088 3085 3085 3087 3091 3096 3098 3100 3104 3105 3106 3108 3110 3113 3116 3118 3120 3123
3093 3090 3089 3088 3086 3084 3082 3080 3078 3076 3075 3075 3074 3073 3073 3074 3074 3074 3073 3072 3072 3071 3070 3069 3068 3067 3066 3065 3065 3063 3062 3062 3060 3060 3061 3063 3063 3064 3063 3062 3061 3062 3063 3063 3062 3060 3058 3054 3057 3063 3065 3067 3070 3072 3077 3079 3079 3083 3085 3084 3082 3087 3094 3096 3095 3095 3097 3097 3090 3084 3083 3084 3086 3086 3088 3092 3094 3097 3100 3102 3103 3104 3106 3109 3112 3115 3118 3120
3092 3088 3087 3086 3084 3082 3080 3078 3077 3076 3075 3074 3074 3074 3074 3074 3074 3073 3072 3071 3071 3070 3069 3068 3067 3067 3066 3065 3064 3062 3061 3061 3061 3060 3061 3062 3063 3063 3063 3063 3063 3063 3064 3064 3063 3063 3060 3051 3050 3057 3059 3062 3068 3072 3074 3075 3076 3079 3078 3077 3083 3092 3094 3094 3094 3093 3093 3091 3084 3080 3081 3083 3083 3082 3083 3088 3091 3093 3096 3098 3101 3102 3103 3105 3108 3112 3115 3117
3090 3086 3085 3084 3082 3080 3078 3076 3075 3074 3074 3074 3074 3074 3074 3074 3073 3073 3071 3070 3070 3070 3069 3068 3068 3067 3066 3065 3064 3063 3061 3061 3061 3061 3061 3061 3062 3062 3061 3062 3062 3062 3063 3064 3063 3063 3060 3052 3049 3053 3057 3059 3065 3070 3071 3072 3075 3077 3076 3077 3084 3087 3085 3087 3089 3088 3088 3088 3082 3079 3080 3079 3078 3077 3080 3084 3087 3089 3092 3095 3098 3100 3101 3102 3105 3109 3111 3114
3088 3085 3084 3082 3080 3078 3075 3073 3072 3072 3073 3073 3073 3073 3073 3073 3073 3071 3070 3069 3069 3069 3068 3068 3067 3066 3066 3065 3064 3063 3062 3061 3061 3061 3062 3062 3062 3061 3060 3060 3061 3061 3061 3063 3062 3061 3060 3057 3050 3049 3053 3056 3059 3062 3064 3067 3070 3074 3076 3079 3081 3080 3079 3081 3082 3081 3084 3085 3082 3080 3077 3072 3071 3074 3078 3081 3084 3087 3090 3091 3094 3097 3100 3101 3102 3106 3109 3111
3087 3084 3083 3081 3078 3076 3073 3071 3071 3071 3071 3071 3071 3071 3072 3072 3071 3069 3068 3068 3068 3067 3067 3066 3066 3065 3064 3064 3064 3063 3062 3062 3061 3061 3061 3061 3061 3060 3059 3059 3058 3058 3059 3060 3062 3060 3058 3058 3052 3046 3048 3051 3053 3055 3058 3061 3065 3068 3070 3072 3074 3075 3077 3079 3080 3079 3081 3081 3080 3080 3074 3066 3068 3073 3075 3078 3082 3085 3087 3089 3091 3094 3097 3099 3100 3103 3106 3108
3085 3081 3080 3079 3077 3074 3071 3069 3069 3069 3069 3069 3069 3069 3070 3070 3069 3068 3067 3067 3067 3066 3066 3065 3064 3064 3063 3063 3063 3062 3062 3061 3060 3060 3060 3059 3059 3059 3058 3057 3056 3055 3056 3057 3059 3059 3057 3056 3053 3046 3045 3046 3049 3052 3056 3059 3062 3064 3065 3066 3068 3070 3073 3077 3077 3076 3078 3078 3077 3077 3070 3063 3066 3072 3073 3076 3079 3081 3085 3088 3089 3091 3094 3096 3098 3100 3103 3106
3084 3078 3075 3075 3074 3072 3070 3068 3068 3068 3068 3068 3068 3069 3069 3068 3067 3067 3067 3066 3066 3065 3065 3064 3063 3063 3062 3062 3062 3061 3060 3060 3059 3059 3058 3057 3058 3058 3057 3056 3056 3055 3055 3056 3057 3058 3057 3055 3052 3046 3042 3043 3046 3049 3052 3055 3058 3060 3062 3064 3066 3068 3069 3070 3070 3070 3074 3076 3075 3076 3070 3059 3062 3070 3071 3073 3076 3077 3081 3084 3085 3089 3091 3094 3096 3098 3100 3103
3084 3079 3075 3072 3071 3069 3068 3067 3067 3067 3067 3067 3067 3068 3068 3067 3066 3066 3065 3065 3064 3064 3064 3063 3062 3062 3062 3061 3061 3061 3060 3058 3058 3057 3057 3056 3056 3057 3056 3055 3054 3054 3055 3056 3055 3056 3056 3054 3052 3046 3042 3042 3044 3047 3050 3053 3056 3056 3057 3061 3063 3065 3065 3065 3066 3068 3072 3073 3072 3076 3070 3056 3056 3066 3069 3070 3073 3074 3076 3079 3081 3084 3087 3090 3093 3094 3097 3100
3082 3079 3075 3071 3069 3067 3067 3067 3067 3066 3066 3066 3066 3067 3067 3066 3065 3064 3064 3063 3063 3064 3063 3062 3061 3061 3061 3060 3060 3060 3059 3058 3056 3056 3055 3054 3054 3055 3054 3054 3053 3053 3054 3055 3055 3055 3055 3054 3053 3050 3046 3044 3044 3046 3048 3050 3051 3052 3054 3057 3059 3061 3063 3064 3066 3068 3068 3067 3069 3073 3068 3055 3054 3063 3066 3067 3070 3071 3073 3076 3077 3079 3082 3084 3088 3090 3093 3097
3079 3077 3075 3070 3067 3065 3065 3065 3066 3065 3065 3065 3065 3066 3065 3065 3064 3063 3062 3063 3063 3063 3062 3061 3060 3060 3060 3059 3059 3058 3057 3056 3055 3054 3053 3053 3052 3052 3052 3052 3051 3051 3052 3054 3054 3054 3055 3054 3054 3054 3052 3046 3041 3042 3044 3045 3046 3047 3049 3052 3054 3057 3060 3061 3064 3064 3062 3063 3066 3067 3062 3055 3055 3061 3063 3065 3068 3068 3070 3071 3072 3073 3076 3078 3081 3085 3088 3093
3076 3074 3073 3071 3068 3065 3064 3064 3064 3064 3063 3064 3064 3064 3063 3062 3061 3061 3061 3062 3061 3061 3060 3059 3059 3059 3058 3058 3057 3056 3055 3054 3054 3052 3051 3051 3050 3050 3050 3050 3049 3049 3050 3051 3052 3052 3053 3052 3052 3052 3051 3045 3041 3040 3043 3044 3043 3043 3044 3046 3049 3052 3055 3059 3060 3058 3058 3061 3062 3059 3059 3059 3058 3058 3060 3062 3065 3066 3066 3066 3067 3069 3071 3073 3077 3081 3085 3090
3075 3072 3071 3070 3069 3066 3064 3064 3063 3062 3062 3062 3062 3062 3061 3060 3060 3060 3060 3060 3060 3059 3059 3058 3058 3057 3057 3056 3055 3054 3053 3052 3052 3051 3050 3050 3049 3049 3048 3048 3047 3047 3047 3048 3049 3050 3050 3049 3049 3048 3047 3044 3042 3040 3041 3043 3042 3041 3042 3043 3045 3047 3050 3053 3052 3052 3056 3059 3056 3056 3061 3062 3057 3055 3057 3060 3062 3064 3064 3064 3066 3068 3069 3071 3074 3078 3082 3087
3076 3073 3070 3069 3068 3067 3065 3064 3063 3062 3061 3061 3061 3060 3060 3059 3059 3058 3058 3058 3058 3058 3057 3057 3056 3055 3055 3054 3053 3052 3051 3050 3050 3049 3049 3049 3048 3047 3046 3046 3045 3044 3044 3045 3046 3048 3048 3046 3046 3046 3043 3041 3040 3039 3040 3041 3041 3040 3040 3041 3042 3043 3045 3047 3047 3050 3055 3055 3053 3057 3062 3060 3055 3053 3055 3058 3061 3062 3062 3062 3064 3067 3068 3070 3073 3076 3079 3083
3075 3073 3070 3068 3067 3066 3064 3063 3063 3062 3061 3061 3060 3060 3059 3059 3058 3058 3057 3057 3057 3057 3056 3055 3055 3054 3053 3053 3052 3050 3050 3048 3047 3047 3047 3047 3046 3045 3044 3043 3043 3042 3041 3042 3044 3045 3045 3044 3044 3043 3039 3036 3037 3038 3039 3040 3039 3038 3039 3038 3038 3038 3040 3043 3046 3050 3053 3053 3055 3058 3060 3057 3054 3053 3055 3057 3059 3060 3061 3061 3063 3066 3067 3069 3071 3073 3076 3080
3074 3072 3070 3068 3066 3065 3064 3063 3062 3062 3061 3060 3060 3059 3059 3059 3058 3058 3057 3055 3055 3055 3054 3054 3053 3052 3051 3051 3050 3049 3048 3047 3045 3044 3045 3044 3043 3042 3041 3040 3040 3039 3039 3039 3041 3042 3042 3042 3042 3040 3036 3033 3034 3036 3037 3037 3037 3037 3037 3035 3034 3034 3037 3041 3045 3048 3051 3053 3055 3057 3057 3055 3054 3054 3056 3057 3058 3058 3059 3060 3062 3065 3067 3068 3069 3072 3075 3078
3072 3070 3069 3067 3065 3064 3063 3063 3062 3061 3060 3060 3059 3058 3058 3058 3057 3056 3055 3054 3053 3053 3052 3052 3051 3050 3049 3049 3048 3047 3046 3045 3043 3042 3042 3041 3040 3039 3039 3037 3036 3036 3036 3037 3038 3039 3040 3040 3040 3039 3035 3032 3032 3033 3033 3034 3036 3036 3034 3031 3030 3032 3035 3038 3042 3045 3047 3051 3053 3054 3053 3053 3053 3055 3055 3056 3057 3057 3057 3059 3062 3064 3066 3068 3069 3071 3073 3076
3071 3069 3067 3066 3064 3063 3063 3062 3061 3060 3060 3059 3058 3058 3057 3057 3056 3055 3054 3053 3053 3052 3051 3050 3050 3048 3047 3047 3045 3044 3043 3042 3040 3038 3037 3037 3036 3036 3035 3034 3033 3033 3033 3034 3035 3036 3038 3038 3038 3038 3035 3030 3030 3030 3030 3032 3034 3034 3032 3029 3027 3029 3032 3036 3040 3042 3044 3047 3049 3050 3051 3051 3052 3053 3053 3054 3055 3056 3056 3058 3060 3063 3065 3067 3068 3070 3072 3076